Miscellaneous Local Product
Issued by NWS Hastings, NE

Home | Current Version | Previous Version | Graphics & Text | Print | Product List | Glossary On
Versions: 1 2 3 4 5 6 7 8 9 10 11 12 13 14 15 16 17 18 19 20 21 22 23 24 25 26 27 28 29 30 31 32 33 34 35 36 37 38 39 40 41 42 43 44 45 46 47 48 49 50
970
AXUS43 KGID 111302
MISGRI

GID CWA HOURLY WEATHER ROUNDUP
NATIONAL WEATHER SERVICE HASTINGS NE
700 AM CST THU FEB 11 2016

NOTE: "FAIR" INDICATES FEW OR NO CLOUDS BELOW 12,000 FEET WITH NO
SIGNIFICANT WEATHER AND/OR OBSTRUCTIONS TO VISIBILITY.

...SOUTH CENTRAL NEBRASKA...

CITY           SKY/WX    TMP DP  RH WIND       PRES   REMARKS
GRAND ISLAND   CLOUDY    25  21  85 E9        30.19F WCI  15
HASTINGS       CLOUDY    26  22  84 E6        30.19F WCI  19
KEARNEY        CLOUDY    28  25  86 CALM      30.18R
ORD            CLOUDY    27  24  89 SE6       30.17R WCI  20
YORK           CLOUDY    23  21  93 E9        30.23S WCI  13
AURORA         CLOUDY    24  23  93 E9        30.20F FOG     WCI  15
LEXINGTON      CLOUDY    30  27  89 CALM      30.16F
HOLDREGE       CLOUDY    29  26  91 NE3       30.18S
HEBRON         CLOUDY    22  19  90 NE5       30.25S WCI  15

...NEBRASKA PANHANDLE...

CITY           SKY/WX    TMP DP  RH WIND       PRES   REMARKS
CHADRON        CLOUDY    30  26  85 SW8       30.04S WCI  22
ALLIANCE       CLOUDY    28  23  81 W7        30.04F WCI  21
SCOTTSBLUFF    CLOUDY    33  24  69 N3        30.07F
SIDNEY         CLOUDY    36  25  64 W12       30.09F WCI  28

...WESTERN AND NORTH CENTRAL NEBRASKA...

CITY           SKY/WX    TMP DP  RH WIND       PRES   REMARKS
VALENTINE      CLOUDY    28  26  92 SE6       30.09F WCI  22
AINSWORTH      CLOUDY    28  25  90 CALM      30.13S
ONEILL         CLOUDY    25  24  95 E7        30.18F FOG     WCI  17
BROKEN BOW     CLOUDY    30  27  88 CALM      30.14S
IMPERIAL         N/A     25  21  85 SW5       30.13S WCI  19
NORTH PLATTE   CLOUDY    27  25  92 SE6       30.13S FOG     WCI  20
MCCOOK         CLOUDY    25  22  88 SE5       30.17S WCI  19

...EASTERN NEBRASKA...

CITY           SKY/WX    TMP DP  RH WIND       PRES   REMARKS
NORFOLK        CLOUDY    19  14  81 E7        30.23S WCI  10
SO SIOUX CITY  CLOUDY    17   9  70 E6        30.30S WCI   9
TEKAMAH        CLOUDY    15   4  61 E3        30.32R
COLUMBUS       CLOUDY    19   9  63 E7        30.26R WCI  10
ALBION         CLOUDY    22  19  89 E7        30.21R FOG     WCI  13
OMAHA EPPLEY   CLOUDY    14   2  58 CALM      30.32R
OFFUTT AFB     CLOUDY    15   6  69 NE6       30.30R WCI   6
MILLARD        CLOUDY    17   7  65 E3        30.30R
LINCOLN        CLOUDY    19  14  81 NE7       30.29R WCI  10
NEBRASKA CITY  CLOUDY    18  15  89 NE8       30.28R WCI   7
BEATRICE       CLOUDY    20  19  94 N8        30.27R FOG     WCI  10
FALLS CITY     CLOUDY    21  17  84 NE7       30.29R WCI  12

...NORTHERN KANSAS...

CITY           SKY/WX    TMP DP  RH WIND       PRES   REMARKS
GOODLAND       CLOUDY    27  21  78 SW9       30.15R WCI  18
HILL CITY      CLOUDY    24  22  91 E5        30.22R FOG     WCI  18
NORTON         CLOUDY    28  25  86 NE8       30.18  FOG     WCI  20
PHILLIPSBURG   CLOUDY    30  27  86 CALM      30.23S
SMITH CENTER   CLOUDY    27  25  93 CALM      30.24R
BELOIT         MOCLDY    23  21  93 NE3       30.24S
HAYS           CLOUDY    28  18  64 NE7       30.22R WCI  21
RUSSELL        CLOUDY    26  24  92 N10       30.21R WCI  16
CONCORDIA      CLOUDY    23  20  88 NE9       30.23S FOG     WCI  13
SALINA         CLOUDY    28  23  81 N12       30.25R WCI  18
TOPEKA         CLOUDY    22  18  85 N6        30.27R WCI  14



USA.gov is the U.S. government's official web portal to all federal, state and local government web resources and services.